Regional Weather Roundup
Issued by NWS Kansas City/Pleasant Hill, MO

Home | Current Version | Previous Version | Text Only | Print | Product List | Glossary On
Versions: 1 2 3 4 5 6 7 8 9 10 11 12 13 14 15 16 17 18 19 20 21 22 23 24 25 26 27
000
ASUS43 KEAX 251310
RWREAX

WEATHER ROUNDUP FOR EASTERN KANSAS AND NORTHWEST MISSOURI
NATIONAL WEATHER SERVICE KANSAS CITY/PLEASANT HILL MO
800 AM CDT WED MAY 25 2016

KSZ040-057-103>105-MOZ028-029-037-043-251400-
...KANSAS CITY METROPOLITAN AREA...

CITY           SKY/WX    TMP DP  RH WIND       PRES   REMARKS
K.C. INTL      CLOUDY    70  57  63 E8        29.86R
K.C. DOWNTOWN  CLOUDY    70  58  65 E6        29.84R
LEES SUMMIT    CLOUDY    67  58  72 SE5       29.86R
OLATHE - IXD   CLOUDY    68  56  65 S9        29.85R
OLATHE - OJC   CLOUDY    68  54  60 S8        29.85R
LAWRENCE       CLOUDY    69  57  65 W5        29.85R

$$

MOZ001>008-011>017-020>025-030>033-038>040-044>046-053-054-251400-
...NORTHERN AND CENTRAL MISSOURI...

CITY           SKY/WX    TMP DP  RH WIND       PRES   REMARKS
ST. JOSEPH     CLOUDY    69  57  65 N17G24    29.89R
MOSBY          CLOUDY    66  59  77 SE5       29.87R
WARRENSBURG    CLOUDY    64  61  88 E8        29.86R
WHITEMAN AFB   PTSUNNY   66  66 100 S14G23    29.85F
CLINTON        CLOUDY    66  63  88 S20G30    29.86F
SEDALIA        CLOUDY    68  64  87 S14       29.89F
WARSAW         NOT AVBL
CHILLICOTHE      N/A     67  62  84 VRB5      29.88R
KIRKSVILLE     CLOUDY    65  63  93 SE13      29.92F

$$

MOZ041-047>049-056>058-063>065-088>090-097-251400-
...EASTERN AND SOUTHERN MISSOURI...

CITY           SKY/WX    TMP DP  RH WIND       PRES   REMARKS
ST. LOUIS INTL CLOUDY    69  61  75 VRB3      30.01S
SPIRIT OF STL  CLOUDY    66  62  87 CALM      30.01R
COLUMBIA       PTSUNNY   65  63  93 S9        29.97R
JEFFERSON CITY CLOUDY    66  63  90 E6        29.97S
ROLLA          MOSUNNY   66  62  87 S13       29.98F
SPRINGFIELD    CLOUDY    66  61  84 NW8       30.02F
BRANSON        CLOUDY    64  63  94 NW6       30.01S
JOPLIN         RAIN      63  62  97 E9        30.03F
WEST PLAINS    CLOUDY    62  60  93 S8        30.04S

$$

IAZ060-094-KSZ022-034>040-054-083-096-NEZ052-066-093-251400-
...KANSAS...SOUTHEAST NEBRASKA AND IOWA...

CITY           SKY/WX    TMP DP  RH WIND       PRES   REMARKS
TOPEKA         CLOUDY    66  61  84 NW3       29.86R
MANHATTAN      LGT RAIN  65  60  84 N6        29.88R
EMPORIA        PTSUNNY   66  59  78 S13G23    29.84R
CHANUTE        CLOUDY    67  60  78 S16       29.86S
WICHITA        CLOUDY    67  63  87 SE22G29   29.84R
OMAHA          CLOUDY    66  61  84 NE3       29.89R
LINCOLN        PTSUNNY   64  59  83 W7        29.90R
FALLS CITY     RAIN      65  60  84 W10       29.91R
LAMONI         PTSUNNY   65  63  93 CALM      29.91R
DES MOINES     CLOUDY    66  63  90 S7        29.91R

$$





USA.gov is the U.S. government's official web portal to all federal, state and local government web resources and services.